Weather History for KGBD - February, 2013

Change the Weather History Date:

Saturday, February 9, 2013

  Actual Average Record
Temperature  
Mean Temperature 42 °F -  
Max Temperature 50 °F 44 °F 62 °F (2015)
Min Temperature 33 °F 20 °F 10 °F (2014)
Degree Days  
Heating Degree Days 24    
Moisture  
Dew Point 33 °F    
Average Humidity 76    
Maximum Humidity 93    
Minimum Humidity 66    
Precipitation  
Precipitation 0.00 in - - ()
Sea Level Pressure  
Sea Level Pressure 29.79 in    
Wind  
Wind Speed 20 mph (SSE)    
Max Wind Speed 33 mph    
Max Gust Speed 40 mph    
Visibility 7 miles    
Events      
Averages and records for this station are not official NWS values.
T = Trace of Precipitation, MM = Missing Value Source: NWS Daily Summary

Daily Weather History Graph

Daily Weather History Graph

Search for Another Location

Airport or City:

Trip Planner

Search our weather history database for the weather conditions in past years. The results will help you decide how hot, cold, wet, or windy it might be!

Date:

Astronomy

Feb. 09, 2013 Rise Set
Actual Time 7:32 AM CST 6:07 PM CST
Civil Twilight 7:05 AM CST 6:34 PM CST
Nautical Twilight 6:33 AM CST 7:06 PM CST
Astronomical Twilight 6:03 AM CST 7:36 PM CST
Moon 6:45 AM CST (2/9) 5:51 PM CST (2/9)
Length of Visible Light 11h 29m
Length of Day
10h 34m
Waning Crescent, 0% of the Moon is Illuminated
Feb 9
Waning Crescent
Feb 10
New
Feb 17
First Quarter
Feb 25
Full
Mar 4
Last Quarter

Hourly Weather History & Observations

Time (CST) Temp. Windchill Dew Point Humidity Pressure Visibility Wind Dir Wind Speed Gust Speed Precip Events Conditions
12:15 AM 35.6 °F 27.1 °F 26.6 °F 70% 30.04 in 7.0 mi SSE 12.7 mph - N/A   Clear
12:35 AM 35.6 °F 26.2 °F 26.6 °F 70% 30.04 in 7.0 mi SSE 15.0 mph - N/A   Clear
12:55 AM 35.6 °F 26.6 °F 26.6 °F 70% 30.04 in 7.0 mi SSE 13.8 mph - N/A   Clear
1:15 AM 33.8 °F 23.9 °F 26.6 °F 75% 30.02 in 7.0 mi SSE 15.0 mph - N/A   Clear
1:35 AM 35.6 °F 26.2 °F 26.6 °F 70% 30.01 in 7.0 mi SSE 15.0 mph - N/A   Clear
1:55 AM 35.6 °F 24.8 °F 26.6 °F 70% 29.99 in 7.0 mi SSE 19.6 mph - N/A   Clear
2:15 AM 35.6 °F 24.5 °F 26.6 °F 70% 29.98 in 7.0 mi South 20.7 mph - N/A   Clear
2:35 AM 35.6 °F 24.5 °F 26.6 °F 70% 29.98 in 7.0 mi South 20.7 mph 25.3 mph N/A   Clear
2:55 AM 35.6 °F 25.2 °F 26.6 °F 70% 29.97 in 7.0 mi SSE 18.4 mph 23.0 mph N/A   Clear
3:15 AM 33.8 °F 24.3 °F 26.6 °F 75% 29.97 in 7.0 mi SSE 13.8 mph - N/A   Clear
3:35 AM 33.8 °F 23.9 °F 26.6 °F 75% 29.96 in 7.0 mi SSE 15.0 mph - N/A   Clear
3:55 AM 33.8 °F 24.8 °F 26.6 °F 75% 29.96 in 7.0 mi SSE 12.7 mph - N/A   Clear
4:15 AM 33.8 °F 24.8 °F 26.6 °F 75% 29.95 in 7.0 mi SSE 12.7 mph - N/A   Clear
4:35 AM 33.8 °F 23.9 °F 26.6 °F 75% 29.95 in 7.0 mi SSE 15.0 mph - N/A   Clear
4:55 AM 33.8 °F 24.8 °F 26.6 °F 75% 29.95 in 6.0 mi SSE 12.7 mph - N/A   Clear
5:15 AM 33.8 °F 24.3 °F 26.6 °F 75% 29.94 in 6.0 mi SSE 13.8 mph - N/A   Clear
5:35 AM 33.8 °F 24.8 °F 26.6 °F 75% 29.94 in 6.0 mi SSE 12.7 mph - N/A   Clear
5:55 AM 33.8 °F 24.3 °F 28.4 °F 81% 29.94 in 7.0 mi South 13.8 mph - N/A   Clear
6:15 AM 35.6 °F 25.9 °F 28.4 °F 75% 29.93 in 8.0 mi South 16.1 mph - N/A   Clear
6:35 AM 35.6 °F 25.2 °F 28.4 °F 75% 29.93 in 9.0 mi South 18.4 mph 23.0 mph N/A   Clear
6:55 AM 35.6 °F 24.8 °F 28.4 °F 75% 29.92 in 8.0 mi South 19.6 mph 26.5 mph N/A   Clear
7:15 AM 35.6 °F 26.2 °F 28.4 °F 75% 29.92 in 8.0 mi South 15.0 mph 21.9 mph N/A   Clear
7:35 AM 35.6 °F 25.2 °F 28.4 °F 75% 29.92 in 6.0 mi South 18.4 mph 21.9 mph N/A   Clear
7:55 AM 35.6 °F 25.2 °F 28.4 °F 75% 29.92 in 6.0 mi South 18.4 mph - N/A   Clear
8:15 AM 35.6 °F 24.8 °F 28.4 °F 75% 29.91 in 6.0 mi South 19.6 mph 25.3 mph N/A   Clear
8:35 AM 37.4 °F 26.6 °F 28.4 °F 70% 29.91 in 7.0 mi South 21.9 mph - N/A   Clear
8:55 AM 37.4 °F 26.4 °F 30.2 °F 75% 29.91 in 8.0 mi South 23.0 mph - N/A   Clear
9:15 AM 39.2 °F 28.5 °F 30.2 °F 70% 29.90 in 10.0 mi South 24.2 mph 28.8 mph N/A   Clear
9:35 AM 41.0 °F 31.1 °F 32.0 °F 70% 29.89 in 10.0 mi South 23.0 mph 31.1 mph N/A   Clear
9:55 AM 42.8 °F 33.3 °F 32.0 °F 66% 29.89 in 10.0 mi SSE 24.2 mph 29.9 mph N/A   Clear
10:15 AM 42.8 °F 32.9 °F 33.8 °F 70% 29.89 in 10.0 mi SSE 26.5 mph 33.4 mph N/A   Clear
10:35 AM 44.6 °F 35.1 °F 35.6 °F 71% 29.88 in 10.0 mi SSE 27.6 mph 35.7 mph N/A   Scattered Clouds
10:55 AM 46.4 °F 37.7 °F 35.6 °F 66% 29.87 in 10.0 mi SSE 26.5 mph 34.5 mph N/A   Overcast
11:15 AM 44.6 °F 35.5 °F 35.6 °F 71% 29.87 in 10.0 mi SSE 25.3 mph 32.2 mph N/A   Overcast
11:35 AM 44.6 °F 35.9 °F 35.6 °F 71% 29.86 in 10.0 mi SSE 23.0 mph - N/A   Overcast
11:55 AM 44.6 °F 34.7 °F 35.6 °F 71% 29.84 in 10.0 mi SSE 29.9 mph 34.5 mph N/A   Mostly Cloudy
12:15 PM 44.6 °F 35.1 °F 35.6 °F 71% 29.82 in 10.0 mi SSE 27.6 mph 33.4 mph N/A   Mostly Cloudy
12:35 PM 48.2 °F - 37.4 °F 66% 29.80 in 10.0 mi SSE 26.5 mph 39.1 mph N/A   Scattered Clouds
12:55 PM 46.4 °F 37.2 °F 37.4 °F 71% 29.77 in 10.0 mi SSE 29.9 mph 34.5 mph N/A   Mostly Cloudy
1:15 PM 50.0 °F - 39.2 °F 66% 29.76 in 10.0 mi SSE 31.1 mph 36.8 mph N/A   Mostly Cloudy
1:35 PM 50.0 °F - 39.2 °F 66% 29.74 in 10.0 mi SSE 33.4 mph 40.3 mph N/A   Mostly Cloudy
1:55 PM 50.0 °F - 39.2 °F 66% 29.73 in 10.0 mi SSE 29.9 mph 36.8 mph N/A   Mostly Cloudy
2:15 PM 48.2 °F - 37.4 °F 66% 29.73 in 10.0 mi South 29.9 mph 36.8 mph N/A   Mostly Cloudy
2:35 PM 46.4 °F 37.5 °F 37.4 °F 71% 29.72 in 10.0 mi South 27.6 mph 35.7 mph N/A   Overcast
2:55 PM 46.4 °F 37.7 °F 37.4 °F 71% 29.71 in 10.0 mi South 26.5 mph 33.4 mph N/A   Overcast
3:15 PM 44.6 °F 34.9 °F 37.4 °F 76% 29.69 in 10.0 mi SSE 28.8 mph 32.2 mph N/A   Overcast
3:35 PM 44.6 °F 35.1 °F 37.4 °F 76% 29.68 in 8.0 mi SSE 27.6 mph 33.4 mph N/A   Overcast
3:55 PM 42.8 °F 33.1 °F 37.4 °F 81% 29.68 in 7.0 mi SSE 25.3 mph 34.5 mph N/A   Overcast
4:15 PM 42.8 °F 33.1 °F 37.4 °F 81% 29.67 in 6.0 mi SSE 25.3 mph 32.2 mph N/A   Overcast
4:35 PM 42.8 °F 32.9 °F 37.4 °F 81% 29.65 in 5.0 mi SSE 26.5 mph 35.7 mph N/A   Overcast
4:55 PM 42.8 °F 33.1 °F 37.4 °F 81% 29.65 in 5.0 mi SSE 25.3 mph 32.2 mph N/A   Overcast
5:15 PM 42.8 °F 32.9 °F 37.4 °F 81% 29.64 in 5.0 mi SSE 26.5 mph 32.2 mph N/A   Overcast
5:35 PM 42.8 °F 32.9 °F 35.6 °F 76% 29.64 in 5.0 mi SSE 26.5 mph 39.1 mph N/A   Overcast
5:55 PM 41.0 °F 30.7 °F 35.6 °F 81% 29.64 in 7.0 mi SSE 25.3 mph 33.4 mph N/A   Overcast
6:15 PM 41.0 °F 30.7 °F 35.6 °F 81% 29.64 in 5.0 mi SSE 25.3 mph 34.5 mph N/A   Overcast
6:35 PM 39.2 °F 28.5 °F 35.6 °F 87% 29.62 in 5.0 mi SSE 24.2 mph 32.2 mph N/A   Overcast
6:55 PM 39.2 °F 28.0 °F 35.6 °F 87% 29.61 in 4.0 mi SSE 26.5 mph 29.9 mph N/A   Overcast
7:35 PM 39.2 °F 28.3 °F 35.6 °F 87% 29.61 in 4.0 mi SSE 25.3 mph 33.4 mph N/A   Overcast
7:55 PM 39.2 °F 27.8 °F 35.6 °F 87% 29.59 in 4.0 mi SSE 27.6 mph 34.5 mph N/A   Overcast
8:15 PM 39.2 °F 28.3 °F 35.6 °F 87% 29.57 in 4.0 mi SSE 25.3 mph 35.7 mph N/A   Overcast
8:35 PM 39.2 °F 27.8 °F 35.6 °F 87% 29.57 in 3.0 mi SSE 27.6 mph 34.5 mph N/A   Overcast
8:55 PM 39.2 °F 28.5 °F 35.6 °F 87% 29.58 in 2.5 mi SSE 24.2 mph 33.4 mph N/A   Overcast
9:15 PM 39.2 °F 28.0 °F 35.6 °F 87% 29.59 in 2.5 mi South 26.5 mph 32.2 mph N/A   Overcast
9:35 PM 39.2 °F 28.0 °F 37.4 °F 93% 29.58 in 2.0 mi South 26.5 mph 31.1 mph N/A   Overcast
9:55 PM 39.2 °F 28.3 °F 37.4 °F 93% 29.57 in 2.0 mi South 25.3 mph 33.4 mph N/A   Overcast
10:15 PM 39.2 °F 28.0 °F 37.4 °F 93% 29.56 in 4.0 mi SSE 26.5 mph 32.2 mph N/A   Overcast
10:35 PM 41.0 °F 29.8 °F 37.4 °F 87% 29.54 in 10.0 mi South 29.9 mph 34.5 mph N/A   Overcast
10:55 PM 41.0 °F 29.7 °F 37.4 °F 87% 29.52 in 10.0 mi SSE 31.1 mph 38.0 mph N/A   Overcast
11:15 PM 41.0 °F 30.0 °F 35.6 °F 81% 29.52 in 10.0 mi South 28.8 mph 38.0 mph N/A   Overcast
11:35 PM 41.0 °F 29.8 °F 37.4 °F 87% 29.50 in 10.0 mi SSE 29.9 mph 36.8 mph N/A   Overcast
11:55 PM 41.0 °F 29.8 °F 37.4 °F 87% 29.49 in 10.0 mi South 29.9 mph 39.1 mph N/A   Overcast